Printer-friendly version

IAU Minor Planet Center

Minor Planet Center

MPEC 1999-K25: 1999 FK16

The following Minor Planet Electronic Circular may be linked-to from your own Web pages, but must not otherwise be redistributed electronically.


Read MPEC 1999-K24 Read MPEC 1999-K26


M.P.E.C. 1999-K25                                Issued 1999 May 22, 16:32 UT

     The Minor Planet Electronic Circulars contain information on unusual
         minor planets and routine data on comets.  They are published
   on behalf of Commission 20 of the International Astronomical Union by the
          Minor Planet Center, Smithsonian Astrophysical Observatory,
                          Cambridge, MA 02138, U.S.A.

             BMARSDEN@CFA.HARVARD.EDU or GWILLIAMS@CFA.HARVARD.EDU
          URL http://cfa-www.harvard.edu/iau/mpc.html  ISSN 1523-6714

                                   1999 FK16

Observations:
     J99F16K* C1999 03 21.42336 13 29 41.02 -10 03 53.0          18.5 V      691
     J99F16K  C1999 03 21.44504 13 29 40.49 -10 03 41.8          18.5 V      691
     J99F16K  C1999 03 21.46683 13 29 39.97 -10 03 30.3          18.4 V      691
     J99F16K  C1999 03 22.38573 13 29 19.07 -09 55 37.3          18.6 V      691
     J99F16K  C1999 03 22.40684 13 29 18.55 -09 55 26.4          18.6 V      691
     J99F16K  C1999 03 22.42828 13 29 18.00 -09 55 15.4          18.6 V      691
     J99F16K  C1999 04 12.29716 13 19 07.61 -06 36 08.3          18.0        704
     J99F16K  C1999 04 12.31429 13 19 06.97 -06 35 59.0          18.0        704
     J99F16K  C1999 04 12.33147 13 19 06.43 -06 35 49.8          18.0        704
     J99F16K  C1999 04 12.34861 13 19 05.92 -06 35 38.0          18.3        704
     J99F16K  C1999 04 12.36577 13 19 05.35 -06 35 29.3          18.3        704
     J99F16K  C1999 05 16.20944 13 05 49.76 -01 53 49.1          18.9 R      703
     J99F16K  C1999 05 16.22363 13 05 49.57 -01 53 44.3          18.7 R      703
     J99F16K  C1999 05 16.23741 13 05 49.48 -01 53 39.2          18.3 R      703
     J99F16K  C1999 05 16.25260 13 05 49.32 -01 53 34.9          18.7 R      703
     J99F16K  C1999 05 17.18696 13 05 41.82 -01 48 18.8          18.8 R      703
     J99F16K  C1999 05 17.20007 13 05 41.63 -01 48 15.7          19.5 R      703
     J99F16K  C1999 05 17.21326 13 05 41.55 -01 48 10.5          18.6 R      703
     J99F16K  C1999 05 17.22714 13 05 41.38 -01 48 05.4          19.1 R      703
     J99F16K  C1999 05 18.87788 13 05 30.55 -01 39 15.0                      557
     J99F16K  C1999 05 18.88877 13 05 30.44 -01 39 11.5          18.8 V      557
     J99F16K  C1999 05 18.93008 13 05 30.21 -01 38 57.4                      118
     J99F16K  C1999 05 18.93343 13 05 30.19 -01 38 56.4                      118
     J99F16K  C1999 05 18.94274 13 05 30.18 -01 38 54.4                      118
     J99F16K  C1999 05 19.21466 13 05 28.69 -01 37 28.6          19.0 V      691
     J99F16K  C1999 05 19.22503 13 05 28.61 -01 37 25.7          19.0 V      691
     J99F16K  C1999 05 19.86378 13 05 25.56 -01 34 10.5          17.6 R      046
     J99F16K  C1999 05 19.86572 13 05 25.57 -01 34 10.1                      046
     J99F16K  C1999 05 19.86772 13 05 25.53 -01 34 08.7                      046
     J99F16K  C1999 05 19.87030 13 05 25.56 -01 34 09.5                      046
     J99F16K  C1999 05 19.87226 13 05 25.52 -01 34 08.1                      046
     J99F16K  C1999 05 21.83970 13 05 19.06 -01 24 36.8                      046
     J99F16K  C1999 05 21.84166 13 05 19.05 -01 24 35.5                      046
     J99F16K  C1999 05 21.84706 13 05 19.05 -01 24 35.3                      046
     J99F16K  C1999 05 21.84939 13 05 19.04 -01 24 34.0                      046
     J99F16K  C1999 05 21.86196 13 05 18.86 -01 24 31.9                      557
     J99F16K  C1999 05 21.88623 13 05 18.80 -01 24 24.9                      557
     J99F16K  C1999 05 22.26161 13 05 18.02 -01 22 40.8                      693
     J99F16K  C1999 05 22.27102 13 05 17.97 -01 22 37.7                      693
     J99F16K  C1999 05 22.27973 13 05 17.95 -01 22 35.3          18.5 R      693
     J99F16K  C1999 05 22.32271 13 05 18.00 -01 22 23.6                      658
     J99F16K  C1999 05 22.33215 13 05 18.00 -01 22 21.4                      658
     J99F16K  C1999 05 22.34045 13 05 17.93 -01 22 18.8                      658

Observer details:
046 Klet.  Observers J. Ticha, M. Tichy, Z. Moravec.  Measurer M. Tichy.
    0.57-m f/5.2 reflector + CCD.
118 Modra.  Observers L. Kornos, J. Toth.  0.6-m f/5.5 reflector + CCD.
557 Ondrejov.  Observers P. Pravec, L. Sarounova.  0.65-m f/3.6 reflector
    + CCD.
658 Dominion Astrophysical Observatory.  Observer D. D. Balam.  1.82-m
    reflector + CCD.
691 Steward Observatory, Kitt Peak.  Observers J. Larsen, A. Gleason, N. Danzl.
    0.9-m Spacewatch telescope.
693 Catalina Station, Tucson.  Observers C. W. Hergenrother, A. E. Gleason.
    1.5-m reflector + CCD.
703 Catalina Sky Survey.  Observer T. B. Spahr.  0.41-m f/3 Schmidt + CCD.
704 Lincoln Laboratory ETS, New Mexico.  Observers M. Blythe, F. Shelly,
    M. Bezpalko, M. Elowitz.  Measurers J. Stuart, H. Viggh, R. Sayer.  1.0-m
    f/2.15 reflector + CCD.

Orbital elements:
1999 FK16
Epoch 1999 Aug. 10.0 TT = JDT 2451400.5                 Williams
M  14.97754              (2000.0)            P               Q
n   0.11631151     Peri.    1.52088     -0.94455453     +0.31617462
a   4.1564344      Node   197.70905     -0.30425110     -0.94422877
e   0.3092383      Incl.   16.93453     -0.12348281     -0.09200892
P   8.47           H   14.2           G   0.15           U   4
From 43 observations 1999 Mar. 21-May 22, mean residual 0".65.

Ephemeris:
1999 FK16                a,e,i = 4.16, 0.31, 17                  q = 2.8711
Date    TT    R. A. (2000) Decl.     Delta      r     Elong.  Phase     V
1999 05 22    13 05.31   -01 23.8    2.080    2.884   134.8    14.4    18.9
1999 06 01    13 05.96   -00 47.3    2.185    2.890   125.2    16.7    19.1
1999 06 11    13 08.53   -00 29.3    2.303    2.897   116.1    18.3    19.3
1999 06 21    13 12.94   -00 28.1    2.431    2.905   107.6    19.5    19.4
1999 07 01    13 19.02   -00 41.5    2.566    2.914    99.7    20.1    19.6
1999 07 11    13 26.57   -01 07.1    2.705    2.924    92.1    20.3    19.7
1999 07 21    13 35.44   -01 42.7    2.845    2.935    84.9    20.2    19.8
1999 07 31    13 45.44   -02 25.9    2.985    2.947    78.1    19.7    19.9
1999 08 10    13 56.42   -03 14.7    3.122    2.960    71.5    18.9    20.0
1999 08 20    14 08.27   -04 07.5    3.256    2.974    65.0    18.0    20.1
1999 08 30    14 20.87   -05 02.6    3.384    2.989    58.8    16.8    20.1
1999 09 09    14 34.12   -05 58.5    3.506    3.004    52.7    15.5    20.2
1999 09 19    14 47.94   -06 53.8    3.620    3.021    46.7    14.0    20.2
1999 09 29    15 02.26   -07 47.3    3.725    3.038    40.8    12.4    20.2
1999 10 09    15 17.00   -08 37.8    3.820    3.056    35.0    10.8    20.2

Gareth V. Williams           (C) Copyright 1999 MPC           M.P.E.C. 1999-K25

Read MPEC 1999-K24 Read MPEC 1999-K26


Our Web policy. Index to the CBAT/MPC/ICQ pages.


Valid HTML 4.01!